Office,Perth
Station Name,Brechin
Location Code,14917
Parameter,River Stage(SG)
Timeseries,SG.15m.Cmd
Copyright SEPA 2018. This SEPA Data is licensed under the Open Government Licence 3.0., http://www.nationalarchives.gov.uk/doc/open-government-licence/version/3
Date/Time,SG(m)
20/12/2020 00:30:00,0.995
20/12/2020 00:45:00,0.993
20/12/2020 01:00:00,0.99
20/12/2020 01:15:00,0.992
20/12/2020 01:30:00,0.988
20/12/2020 01:45:00,0.982
20/12/2020 02:00:00,0.977
20/12/2020 02:15:00,0.977
20/12/2020 02:30:00,0.972
20/12/2020 02:45:00,0.973
20/12/2020 03:00:00,0.967
20/12/2020 03:15:00,0.965
20/12/2020 03:30:00,0.959
20/12/2020 03:45:00,0.958
20/12/2020 04:00:00,0.954
20/12/2020 04:15:00,0.952
20/12/2020 04:30:00,0.944
20/12/2020 04:45:00,0.941
20/12/2020 05:00:00,0.937
20/12/2020 05:15:00,0.932
20/12/2020 05:30:00,0.928
20/12/2020 05:45:00,0.92
20/12/2020 06:00:00,0.914
20/12/2020 06:15:00,0.913
20/12/2020 06:30:00,0.905
20/12/2020 06:45:00,0.899
20/12/2020 07:00:00,0.891
20/12/2020 07:15:00,0.884
20/12/2020 07:30:00,0.879
20/12/2020 07:45:00,0.874
20/12/2020 08:00:00,0.864
20/12/2020 08:15:00,0.858
20/12/2020 08:30:00,0.851
20/12/2020 08:45:00,0.844
20/12/2020 09:00:00,0.84
20/12/2020 09:15:00,0.83
20/12/2020 09:30:00,0.823
20/12/2020 09:45:00,0.819
20/12/2020 10:00:00,0.811
20/12/2020 10:15:00,0.806
20/12/2020 10:30:00,0.801
20/12/2020 10:45:00,0.798
20/12/2020 11:00:00,0.79
20/12/2020 11:15:00,0.788
20/12/2020 11:30:00,0.78
20/12/2020 11:45:00,0.779
20/12/2020 12:00:00,0.772
20/12/2020 12:15:00,0.768
20/12/2020 12:30:00,0.763
20/12/2020 12:45:00,0.762
20/12/2020 13:00:00,0.762
20/12/2020 13:15:00,0.757
20/12/2020 13:30:00,0.755
20/12/2020 13:45:00,0.752
20/12/2020 14:00:00,0.75
20/12/2020 14:15:00,0.749
20/12/2020 14:30:00,0.748
20/12/2020 14:45:00,0.746
20/12/2020 15:00:00,0.745
20/12/2020 15:15:00,0.74
20/12/2020 15:30:00,0.739
20/12/2020 15:45:00,0.74
20/12/2020 16:00:00,0.737
20/12/2020 16:15:00,0.735
20/12/2020 16:30:00,0.734
20/12/2020 16:45:00,0.734
20/12/2020 17:00:00,0.731
20/12/2020 17:15:00,0.727
20/12/2020 17:30:00,0.725
20/12/2020 17:45:00,0.724
20/12/2020 18:00:00,0.722
20/12/2020 18:15:00,0.721
20/12/2020 18:30:00,0.719
20/12/2020 18:45:00,0.717
20/12/2020 19:00:00,0.717
20/12/2020 19:15:00,0.719
20/12/2020 19:30:00,0.714
20/12/2020 19:45:00,0.711
20/12/2020 20:00:00,0.711
20/12/2020 20:15:00,0.709
20/12/2020 20:30:00,0.708
20/12/2020 20:45:00,0.706
20/12/2020 21:00:00,0.705
20/12/2020 21:15:00,0.704
20/12/2020 21:30:00,0.702
20/12/2020 21:45:00,0.702
20/12/2020 22:00:00,0.699
20/12/2020 22:15:00,0.699
20/12/2020 22:30:00,0.697
20/12/2020 22:45:00,0.697
20/12/2020 23:00:00,0.693
20/12/2020 23:15:00,0.693
20/12/2020 23:30:00,0.692
20/12/2020 23:45:00,0.69
21/12/2020 00:00:00,0.688
21/12/2020 00:15:00,0.687
21/12/2020 00:30:00,0.684
21/12/2020 00:45:00,0.683
21/12/2020 01:00:00,0.679
21/12/2020 01:15:00,0.677
21/12/2020 01:30:00,0.675
21/12/2020 01:45:00,0.673
21/12/2020 02:00:00,0.672
21/12/2020 02:15:00,0.667
21/12/2020 02:30:00,0.664
21/12/2020 02:45:00,0.661
21/12/2020 03:00:00,0.66
21/12/2020 03:15:00,0.657
21/12/2020 03:30:00,0.653
21/12/2020 03:45:00,0.651
21/12/2020 04:00:00,0.648
21/12/2020 04:15:00,0.647
21/12/2020 04:30:00,0.646
21/12/2020 04:45:00,0.643
21/12/2020 05:00:00,0.641
21/12/2020 05:15:00,0.639
21/12/2020 05:30:00,0.636
21/12/2020 05:45:00,0.634
21/12/2020 06:00:00,0.632
21/12/2020 06:15:00,0.627
21/12/2020 06:30:00,0.627
21/12/2020 06:45:00,0.623
21/12/2020 07:00:00,0.623
21/12/2020 07:15:00,0.621
21/12/2020 07:30:00,0.618
21/12/2020 07:45:00,0.614
21/12/2020 08:00:00,0.614
21/12/2020 08:15:00,0.613
21/12/2020 08:30:00,0.609
21/12/2020 08:45:00,0.609
21/12/2020 09:00:00,0.607
21/12/2020 09:15:00,0.604
21/12/2020 09:30:00,0.603
21/12/2020 09:45:00,0.602
21/12/2020 10:00:00,0.6
21/12/2020 10:15:00,0.598
21/12/2020 10:30:00,0.597
21/12/2020 10:45:00,0.596
21/12/2020 11:00:00,0.595
21/12/2020 11:15:00,0.592
21/12/2020 11:30:00,0.593
21/12/2020 11:45:00,0.592
21/12/2020 12:00:00,0.589
21/12/2020 12:15:00,0.589
21/12/2020 12:30:00,0.587
21/12/2020 12:45:00,0.587
21/12/2020 13:00:00,0.585
21/12/2020 13:15:00,0.585
21/12/2020 13:30:00,0.584
21/12/2020 13:45:00,0.586
21/12/2020 14:00:00,0.582
21/12/2020 14:15:00,0.581
21/12/2020 14:30:00,0.581
21/12/2020 14:45:00,0.58
21/12/2020 15:00:00,0.58
21/12/2020 15:15:00,0.579
21/12/2020 15:30:00,0.577
21/12/2020 15:45:00,0.577
21/12/2020 16:00:00,0.576
21/12/2020 16:15:00,0.576
21/12/2020 16:30:00,0.577
21/12/2020 16:45:00,0.577
21/12/2020 17:00:00,0.576
21/12/2020 17:15:00,0.575
21/12/2020 17:30:00,0.576
21/12/2020 17:45:00,0.577
21/12/2020 18:00:00,0.576
21/12/2020 18:15:00,0.577
21/12/2020 18:30:00,0.575
21/12/2020 18:45:00,0.575
21/12/2020 19:00:00,0.576
21/12/2020 19:15:00,0.574
21/12/2020 19:30:00,0.573
21/12/2020 19:45:00,0.573
21/12/2020 20:00:00,0.573
21/12/2020 20:15:00,0.573
21/12/2020 20:30:00,0.573
21/12/2020 20:45:00,0.572
21/12/2020 21:00:00,0.571
21/12/2020 21:15:00,0.571
21/12/2020 21:30:00,0.568
21/12/2020 21:45:00,0.569
21/12/2020 22:00:00,0.567
21/12/2020 22:15:00,0.567
21/12/2020 22:30:00,0.566
21/12/2020 22:45:00,0.566
21/12/2020 23:00:00,0.564
21/12/2020 23:15:00,0.562
21/12/2020 23:30:00,0.562
21/12/2020 23:45:00,0.564
22/12/2020 00:00:00,0.561
22/12/2020 00:15:00,0.561
22/12/2020 00:30:00,0.561
22/12/2020 00:45:00,0.559
22/12/2020 01:00:00,0.558
22/12/2020 01:15:00,0.559
22/12/2020 01:30:00,0.557
22/12/2020 01:45:00,0.557
22/12/2020 02:00:00,0.556
22/12/2020 02:15:00,0.556
22/12/2020 02:30:00,0.554
22/12/2020 02:45:00,0.551
22/12/2020 03:00:00,0.551
22/12/2020 03:15:00,0.548
22/12/2020 03:30:00,0.547
22/12/2020 03:45:00,0.547
22/12/2020 04:00:00,0.545
22/12/2020 04:15:00,0.545
22/12/2020 04:30:00,0.543
22/12/2020 04:45:00,0.541
22/12/2020 05:00:00,0.541
22/12/2020 05:15:00,0.539
22/12/2020 05:30:00,0.538
22/12/2020 05:45:00,0.538
22/12/2020 06:00:00,0.535
22/12/2020 06:15:00,0.534
22/12/2020 06:30:00,0.535
22/12/2020 06:45:00,0.531
22/12/2020 07:00:00,0.529
22/12/2020 07:15:00,0.526
22/12/2020 07:30:00,0.526
22/12/2020 07:45:00,0.525
22/12/2020 08:00:00,0.524
22/12/2020 08:15:00,0.522
22/12/2020 08:30:00,0.52
22/12/2020 08:45:00,0.52
22/12/2020 09:00:00,0.517
22/12/2020 09:15:00,0.516
22/12/2020 09:30:00,0.516
22/12/2020 09:45:00,0.514
22/12/2020 10:00:00,0.512
22/12/2020 10:15:00,0.51
22/12/2020 10:30:00,0.508
22/12/2020 10:45:00,0.506
22/12/2020 11:00:00,0.503
22/12/2020 11:15:00,0.503
22/12/2020 11:30:00,0.501
22/12/2020 11:45:00,0.5
22/12/2020 12:00:00,0.498
22/12/2020 12:15:00,0.497
22/12/2020 12:30:00,0.495
22/12/2020 12:45:00,0.493
22/12/2020 13:00:00,0.493
22/12/2020 13:15:00,0.491
22/12/2020 13:30:00,0.489
22/12/2020 13:45:00,0.488
22/12/2020 14:00:00,0.486
22/12/2020 14:15:00,0.486
22/12/2020 14:30:00,0.484
22/12/2020 14:45:00,0.482
22/12/2020 15:00:00,0.482
22/12/2020 15:15:00,0.48
22/12/2020 15:30:00,0.479
22/12/2020 15:45:00,0.479
22/12/2020 16:00:00,0.477
22/12/2020 16:15:00,0.476
22/12/2020 16:30:00,0.474
22/12/2020 16:45:00,0.474
22/12/2020 17:00:00,0.473
22/12/2020 17:15:00,0.473
22/12/2020 17:30:00,0.471
22/12/2020 17:45:00,0.47
22/12/2020 18:00:00,0.468
22/12/2020 18:15:00,0.467
22/12/2020 18:30:00,0.465
22/12/2020 18:45:00,0.465
22/12/2020 19:00:00,0.463
22/12/2020 19:15:00,0.463
22/12/2020 19:30:00,0.461
22/12/2020 19:45:00,0.46
22/12/2020 20:00:00,0.457
22/12/2020 20:15:00,0.456
22/12/2020 20:30:00,0.454
22/12/2020 20:45:00,0.455
22/12/2020 21:00:00,0.454
22/12/2020 21:15:00,0.453
22/12/2020 21:30:00,0.452
22/12/2020 21:45:00,0.451
22/12/2020 22:00:00,0.451
22/12/2020 22:15:00,0.449
22/12/2020 22:30:00,0.449
22/12/2020 22:45:00,0.449
22/12/2020 23:00:00,0.447
22/12/2020 23:15:00,0.446
22/12/2020 23:30:00,0.446
22/12/2020 23:45:00,0.445
23/12/2020 00:00:00,0.444
23/12/2020 00:15:00,0.443
23/12/2020 00:30:00,0.442
23/12/2020 00:45:00,0.442
23/12/2020 01:00:00,0.442
23/12/2020 01:15:00,0.441
23/12/2020 01:30:00,0.44
23/12/2020 01:45:00,0.438
23/12/2020 02:00:00,0.439
23/12/2020 02:15:00,0.438
23/12/2020 02:30:00,0.437
23/12/2020 02:45:00,0.437
23/12/2020 03:00:00,0.436
23/12/2020 03:15:00,0.436
23/12/2020 03:30:00,0.435
23/12/2020 03:45:00,0.434
23/12/2020 04:00:00,0.434
23/12/2020 04:15:00,0.432
23/12/2020 04:30:00,0.433
23/12/2020 04:45:00,0.432
23/12/2020 05:00:00,0.432
23/12/2020 05:15:00,0.43
23/12/2020 05:30:00,0.429
23/12/2020 05:45:00,0.429
23/12/2020 06:00:00,0.428
23/12/2020 06:15:00,0.427
23/12/2020 06:30:00,0.427
23/12/2020 06:45:00,0.426
23/12/2020 07:00:00,0.426
23/12/2020 07:15:00,0.425
23/12/2020 07:30:00,0.423
23/12/2020 07:45:00,0.423
23/12/2020 08:00:00,0.421
23/12/2020 08:15:00,0.421
23/12/2020 08:30:00,0.421
23/12/2020 08:45:00,0.419
23/12/2020 09:00:00,0.419
23/12/2020 09:15:00,0.417
23/12/2020 09:30:00,0.416
23/12/2020 09:45:00,0.416
23/12/2020 10:00:00,0.416
23/12/2020 10:15:00,0.413
23/12/2020 10:30:00,0.414
23/12/2020 10:45:00,0.414
23/12/2020 11:00:00,0.413
23/12/2020 11:15:00,0.411
23/12/2020 11:30:00,0.412
23/12/2020 11:45:00,0.411
23/12/2020 12:00:00,0.41
23/12/2020 12:15:00,0.409
23/12/2020 12:30:00,0.409
23/12/2020 12:45:00,0.407
23/12/2020 13:00:00,0.407
23/12/2020 13:15:00,0.407
23/12/2020 13:30:00,0.406
23/12/2020 13:45:00,0.405
23/12/2020 14:00:00,0.405
23/12/2020 14:15:00,0.403
23/12/2020 14:30:00,0.403
23/12/2020 14:45:00,0.403
23/12/2020 15:00:00,0.402
23/12/2020 15:15:00,0.4
23/12/2020 15:30:00,0.4
23/12/2020 15:45:00,0.4
23/12/2020 16:00:00,0.4
23/12/2020 16:15:00,0.399
23/12/2020 16:30:00,0.399
23/12/2020 16:45:00,0.397
23/12/2020 17:00:00,0.397
23/12/2020 17:15:00,0.397
23/12/2020 17:30:00,0.396
23/12/2020 17:45:00,0.396
23/12/2020 18:00:00,0.397
23/12/2020 18:15:00,0.395
23/12/2020 18:30:00,0.396
23/12/2020 18:45:00,0.395
23/12/2020 19:00:00,0.395
23/12/2020 19:15:00,0.393
23/12/2020 19:30:00,0.393
23/12/2020 19:45:00,0.393
23/12/2020 20:00:00,0.393
23/12/2020 20:15:00,0.392
23/12/2020 20:30:00,0.392
23/12/2020 20:45:00,0.39
23/12/2020 21:00:00,0.39
23/12/2020 21:15:00,0.39
23/12/2020 21:30:00,0.39
23/12/2020 21:45:00,0.39
23/12/2020 22:00:00,0.389
23/12/2020 22:15:00,0.39
23/12/2020 22:30:00,0.389
23/12/2020 22:45:00,0.389
23/12/2020 23:00:00,0.389
23/12/2020 23:15:00,0.387
